Change the Weather History Date:

Sunday, March 17, 2013

  Actual Average Record
Temperature  
Mean Temperature 19 °F -  
Max Temperature 29 °F 39 °F - ()
Min Temperature 9 °F 25 °F - ()
Degree Days  
Heating Degree Days 46    
Moisture  
Dew Point 12 °F    
Average Humidity 70    
Maximum Humidity 93    
Minimum Humidity 28    
Precipitation  
Precipitation 0.03 in 0.12 in - ()
Sea Level Pressure  
Sea Level Pressure 29.82 in    
Wind  
Wind Speed 8 mph ()    
Max Wind Speed 23 mph    
Max Gust Speed 33 mph    
Visibility 10.7 miles    
Events Snow    
T = Trace of Precipitation, MM = Missing Value Source: Averaged Metar Reports

Daily Weather History Graph

Daily Weather History Graph

Search for Another Location

Airport or City:

Trip Planner

Search our weather history database for the weather conditions in past years. The results will help you decide how hot, cold, wet, or windy it might be!

Date:

Astronomy

Mar. 17, 2013 Rise Set
Actual Time 7:20 AM ADT 7:21 PM ADT
Civil Twilight 6:51 AM ADT 7:51 PM ADT
Nautical Twilight 6:16 AM ADT 8:26 PM ADT
Astronomical Twilight 5:40 AM ADT 9:02 PM ADT
Moon 10:11 AM ADT (3/17) 12:43 AM ADT (3/17)
Length of Visible Light 13h 00m
Length of Day
12h 00m
Waxing Crescent, 31% of the Moon is Illuminated
Mar 17
Waxing Crescent
Mar 19
First Quarter
Mar 27
Full
Apr 3
Last Quarter
Apr 10
New

Hourly Weather History & Observations

Time (ADT) Temp. Windchill Dew Point Humidity Pressure Visibility Wind Dir Wind Speed Gust Speed Precip Events Conditions
12:00 AM 15.8 °F - 12.2 °F 86% 29.76 in 15.0 mi Calm Calm - N/A   Partly Cloudy
1:00 AM 17.6 °F 12.3 °F 12.2 °F 79% 29.78 in 15.0 mi WSW 3.5 mph - N/A   Mostly Cloudy
3:00 AM 17 °F - 10 °F 65% 29.81 in 15 mi WNW 4.6 mph - -   Scattered Clouds
3:00 AM 15.8 °F 7.2 °F 10.4 °F 79% 29.81 in 15.0 mi WNW 5.8 mph - N/A   Partly Cloudy
4:00 AM 15.8 °F 6.1 °F 10.4 °F 79% 29.81 in 15.0 mi WNW 6.9 mph - N/A   Partly Cloudy
5:00 AM 17.6 °F 7.3 °F 8.6 °F 68% 29.81 in 15.0 mi WNW 8.1 mph - N/A   Partly Cloudy
6:00 AM 15.8 °F 6.1 °F 6.8 °F 68% 29.82 in 15.0 mi West 6.9 mph - N/A   Partly Cloudy
7:00 AM 14.0 °F 3.9 °F 6.8 °F 73% 29.84 in 15.0 mi West 6.9 mph - N/A   Partly Cloudy
8:00 AM 15.8 °F 6.1 °F 5.0 °F 62% 29.84 in 15.0 mi West 6.9 mph - N/A   Partly Cloudy
9:00 AM 18 °F - 8 °F 52% 29.86 in 15 mi West 5.8 mph - -   Scattered Clouds
9:00 AM 17.6 °F 9.3 °F 8.6 °F 68% 29.86 in 15.0 mi West 5.8 mph - N/A   Partly Cloudy
10:00 AM 21.2 °F 13.6 °F 8.6 °F 58% 29.86 in 15.0 mi WSW 5.8 mph - N/A   Partly Cloudy
11:00 AM 23.0 °F 13.9 °F 6.8 °F 50% 29.84 in 15.0 mi SW 8.1 mph - N/A   Partly Cloudy
1:00 PM 26.6 °F 17.5 °F 6.8 °F 43% 29.82 in 15.0 mi SW 9.2 mph - N/A   Partly Cloudy
2:00 PM 26.6 °F 18.2 °F 6.8 °F 43% 29.80 in 15.0 mi WSW 8.1 mph - N/A   Mostly Cloudy
3:00 PM 28 °F - 8 °F 28% 29.76 in 15 mi WSW 11.5 mph - -   Partly Cloudy
3:00 PM 28.4 °F 19.1 °F 8.6 °F 43% 29.76 in 15.0 mi West 10.4 mph 19.6 mph N/A   Mostly Cloudy
3:40 PM 26.6 °F 16.8 °F 10.4 °F 51% 29.76 in 15.0 mi WNW 10.4 mph 18.4 mph N/A   Overcast
4:00 PM 24.8 °F 12.4 °F 12.2 °F 59% 29.77 in 15.0 mi WNW 15.0 mph 23.0 mph N/A   Overcast
4:16 PM 24.8 °F 12.9 °F 14.0 °F 64% 29.77 in 15.0 mi WNW 13.8 mph 21.9 mph N/A Snow Light Snow
4:49 PM 23.0 °F 13.9 °F 17.6 °F 80% 29.77 in 2.0 mi WNW 8.1 mph - N/A Snow Light Snow
5:00 PM 23.0 °F 11.1 °F 17.6 °F 80% 29.78 in 2.0 mi WNW 12.7 mph 18.4 mph N/A Snow Light Snow
5:04 PM 23.0 °F 12.4 °F 19.4 °F 86% 29.78 in 1.5 mi WNW 10.4 mph 18.4 mph N/A Snow Light Snow
6:00 PM 21.2 °F 10.1 °F 17.6 °F 86% 29.78 in 3.0 mi WNW 10.4 mph - N/A Snow Light Snow
6:24 PM 21.2 °F 10.1 °F 19.4 °F 93% 29.79 in 1.0 mi WNW 10.4 mph - N/A Snow Light Snow
6:50 PM 21.2 °F 9.5 °F 17.6 °F 86% 29.80 in 0.5 mi WNW 11.5 mph - N/A Snow Snow
6:53 PM 21.2 °F 8.3 °F 17.6 °F 86% 29.81 in 3.0 mi WNW 13.8 mph - N/A Snow Light Snow
7:00 PM 21.2 °F 9.5 °F 17.6 °F 86% 29.81 in 10.0 mi WNW 11.5 mph 19.6 mph N/A Snow Light Snow Showers
7:13 PM 21.2 °F 5.2 °F 17.6 °F 86% 29.82 in 0.2 mi WNW 21.9 mph 29.9 mph N/A Snow Heavy Snow Showers
7:16 PM 19.4 °F 3.2 °F 17.6 °F 93% 29.82 in 2.0 mi West 20.7 mph 31.1 mph N/A Snow Light Snow Showers
8:00 PM 19.4 °F 4.5 °F 14.0 °F 80% 29.84 in 2.5 mi WNW 17.3 mph 24.2 mph N/A Snow Light Snow Showers
8:09 PM 19.4 °F 5.5 °F 15.8 °F 86% 29.85 in 0.5 mi WNW 15.0 mph 21.9 mph N/A Snow Snow Showers
8:24 PM 17.6 °F 0.9 °F 14.0 °F 86% 29.86 in 2.5 mi WNW 20.7 mph 32.2 mph N/A Snow Light Snow Showers
8:37 PM 19.4 °F 4.1 °F 12.2 °F 74% 29.87 in 15.0 mi WNW 18.4 mph 27.6 mph N/A Snow Low Drifting Snow
9:00 PM 18 °F - 10 °F 58% 29.88 in 15 mi WNW 13.8 mph - - Snow Low Drifting Snow
9:00 PM 17.6 °F 2.2 °F 8.6 °F 68% 29.88 in 15.0 mi WNW 17.3 mph 25.3 mph N/A Snow Low Drifting Snow
10:00 PM 15.8 °F -1.1 °F 5.0 °F 62% 29.92 in 15.0 mi WNW 19.6 mph 28.8 mph N/A Snow Low Drifting Snow
11:00 PM 14.0 °F -4.7 °F 3.2 °F 62% 29.95 in 15.0 mi WNW 23.0 mph 33.4 mph N/A Snow Low Drifting Snow